Regional Weather Roundup
Issued by NWS

Home | Current Version | Previous Version | Text Only | Print | Product List | Glossary On
Versions: 1 2 3 4 5 6 7 8 9 10 11 12 13 14 15 16 17 18 19 20 21 22 23 24 25 26 27 28 29 30 31 32 33 34 35 36 37 38 39 40 41 42 43 44 45 46 47 48 49 50
000
ASUS44 KEWX 060310
RWRTX
SOUTH TEXAS REGIONAL WEATHER ROUNDUP
NATIONAL WEATHER SERVICE AUSTIN/SAN ANTONIO TX
1000 PM CDT SUN JUL 05 2015

NOTE: "FAIR" INDICATED FEW OR NO CLOUDS BELOW 12,000 FEET WITH NO
SIGNIFICANT WEATHER AND/OR OBSTRUCTIONS TO VISIBILITY.

* - THESE STATIONS ARE NOT NWS OR FAA STATIONS...AND ARE NOT SUBJECT
    TO NWS AND FAA QUALITY CONTROL.

TXZ171-172-183>190-060400-
TEXAS HILL COUNTRY AND EDWARDS PLATEAU

CITY           SKY/WX    TMP DP  RH WIND       PRES   REMARKS
JUNCTION       MOCLDY    83  69  62 S9        29.99R
*LLANO         CLEAR     84  72  65 S9        30.01R
BURNET         CLOUDY    82  70  66 S7        30.02R
*HORSESHOE BAY PTCLDY    82  72  71 SE10G17   29.99S
*KERRVILLE     PTCLDY    79  73  80 SE10      30.01R
*FREDERICKSBRG PTCLDY    79  69  71 SE5       30.01R
*ROCKSPRINGS   CLEAR     79  68  69 SE8       30.03S
*BOERNE STAGE  CLOUDY    79  72  78 SE10      30.02R
*CASTROVILLE   PTCLDY    82  73  72 SE16G22   29.99R
HONDO          LGT RAIN  83  75  77 SE14      29.99R HX  90
*UVALDE        CLEAR     83  72  68 E10       29.95R
DEL RIO        PTCLDY    86  69  56 E8        29.89S HX  90
LAUGHLIN AFB   NOT AVBL
CARRIZO SPRGS  PTCLDY    86  72  62 SE12G21   29.90R HX  92
$$

TXZ173-191>194-202-209-217>225-228-060400-
CENTRAL AND SOUTH CENTRAL TEXAS

CITY           SKY/WX    TMP DP  RH WIND       PRES   REMARKS
GEORGETOWN     CLEAR     82  70  65 SE7       29.99R
AUSTIN/BERGSTM CLEAR     81  74  79 S10       30.00R
AUSTIN/MABRY   MOCLDY    82  72  71 SE7       30.01R
*AUSTIN/EXEC   PTCLDY    81  73  78 SE8       30.01R
*LAGO VISTA    CLEAR     81  72  72 S12G20    30.02R
SAN MARCOS     CLEAR     81  72  74 S14       30.01R
NEW BRAUNFELS  MOCLDY    81  74  79 S15       29.99R
RANDOLPH AFB   NOT AVBL
PT SAN ANTONIO NOT AVBL
SAN ANTONIO    MOCLDY    83  74  74 SE17      30.00R
STINSON FIELD  CLOUDY    82  75  79 SE12G22   29.97R
*PLEASANTON    MOCLDY    82  74  76 SE9G21    29.98R
*LA GRANGE     CLEAR     82  77  85 SE8       30.01R
*GIDDINGS      CLEAR     80  73  79 S6        30.05R
*GONZALES      CLOUDY    82  76  83 S14       30.01R
$$

TXZ163>164-176>182-195>201-210>213-226-227-235-060400-
SOUTHEAST TEXAS

CITY           SKY/WX    TMP DP  RH WIND       PRES   REMARKS
COLLEGE STN    CLEAR     82  72  71 SE9       30.03R
*BRYAN         CLEAR     81  73  77 S9        30.03R
*CALDWELL      CLEAR     81  75  83 SE10      30.05R
*CROCKETT      CLEAR     84  79  84 SE8       30.06R HX  96
*BRENHAM       CLEAR     82  75  77 SE8       30.04R
HUNTSVILLE     CLEAR     84  74  71 VRB5      30.04R HX  91
CONROE         PTCLDY    80  73  79 SE6       30.05R
HOUSTON BUSH   PTCLDY    83  75  77 S10       30.05R HX  90
HOUSTON HOBBY  PTCLDY    82  76  81 SE7       30.05R
*HOUSTON SW AP CLEAR     74  72  92 SE3       30.05R
PEARLAND       CLEAR     84  76  76 SE6       30.07R HX  93
HOUSTON HOOKS  PTCLDY    84  74  71 SE10      30.04R HX  91
ELLINGTON FLD  PTCLDY    84  75  74 SE8       30.06R HX  92
SUGAR LAND     PTCLDY    82  75  79 SE10      30.04R
*HOUSTON EXEC  CLEAR     81  75  83 S7        30.05R
*CLEVELAND MUN CLEAR     79  76  90 S3        30.06R
*WHARTON       CLEAR     78  76  92 SE5       30.04S
*COLUMBUS      FAIR      80  75  86 SE6       30.03R
$$

TXZ214>216-236>238-060400-
THE UPPER TEXAS COAST

CITY           SKY/WX    TMP DP  RH WIND       PRES   REMARKS
*ORANGE        PTCLDY    81  73  76 SE3       30.09R
PORT ARTHUR    PTCLDY    81  76  84 S8        30.06R
GALVESTON      PTCLDY    84  77  79 SE13      30.07R HX  94
ANGLETON       PTCLDY    83  77  82 SE6       30.05R HX  92
*BAY CITY      PTCLDY    81  78  91 SE5       30.04R
PALACIOS       MOCLDY    83  78  85 SE12      30.03R HX  93
$$

TXZ229>234-239>247-060400-
TEXAS COASTAL BEND AND RIO GRANDE PLAINS

CITY           SKY/WX    TMP DP  RH WIND       PRES   REMARKS
VICTORIA       PTCLDY    80  77  90 SE8       30.02R
*BEEVILLE      MOCLDY    80  80 100 SE12G18   29.99S
ROCKPORT       LGT RAIN  83  77  82 S12G20    30.01R HX  92
*PORT ARANSAS  MOCLDY    82  78  90 S13       30.00R HX  90
*PORT LAVACA   NOT AVBL
*INGLESIDE     MOCLDY    83  78  84 S13G23    30.00R HX  93
CORPUS CHRISTI MOCLDY    82  77  84 SE16      29.99R HX  90
CORPUS NAS     MOCLDY   N/A N/A N/A SE16      29.99R
*ROBSTOWN      MOCLDY    82  78  88 SE13      29.99R HX  92
ALICE          CLOUDY    81  77  88 SE13      29.98R
KINGSVILLE NAS CLOUDY    82  80  94 SE12      29.98R HX  94
COTULLA        LGT RAIN  87  72  60 SE16      29.94R HX  93
*FAITH RANCH   CLEAR     90  72  55 SE16G23   29.90S HX  96
LAREDO         CLEAR     88  72  58 SE15      29.93R HX  94
$$

TXZ248>255-060400-
DEEP SOUTH TEXAS

CITY           SKY/WX    TMP DP  RH WIND       PRES   REMARKS
BROWNSVILLE    CLEAR     82  78  88 SE14      29.99R HX  91
PORT ISABEL    CLEAR     82  78  88 SE15      29.99R FOG     HX  91
*SOUTH PADRE   CLEAR     81  77  89 SW12      30.00R
HARLINGEN      CLEAR     82  78  88 SE13      29.98R HX  91
*HEBBRONVILLE    N/A     82  71  70 SE10      29.98R
MCALLEN        CLEAR     84  76  76 SE14G23   29.97R HX  93
*WESLACO       CLEAR     82  75  81 SE12      29.98R
FALFURRIAS     CLEAR     82  75  78 SE8       29.96S
EDINBURG       CLEAR     83  75  76 SE10      29.98R HX  91
*ZAPATA        CLEAR     85  72  63 SE13G22   29.92R HX  91
$$

TXZ213>215-236>238-242>244-246-247-251-254-255-060400-
CMAN STATIONS

STATION/POSITION TIME  TEMP    WIND        PRES    WAVE
                       AIR SEA DIR/SP/G            HT/PER
                 (UTC) (F)     (DEG/KT/KT) (MB)    (FT/S)
$$

GMZ080-GMZ150>470-060400-
OFFSHORE BUOY REPORTS

STATION/POSITION TIME  TEMP    WIND        PRES    WAVE
                       AIR SEA DIR/SP/G            HT/PER
                 (UTC) (F)     (DEG/KT/KT) (MB)    (FT/S)
$$


USA.gov is the U.S. government's official web portal to all federal, state and local government web resources and services.